Location: Centerville
(32.8776°N, 96.6203°W)
Time: 05:38:37
(UTC+00:00)

Cosmos 1844 - Pass Details

Date: 17 June 2021
Orbit: 823 x 867 km, 70.9° (Epoch: 29 July)

Event Time Altitude Azimuth Distance (km) Brightness Sun altitude
Rises 04:10:09 0° 346° (NNW) 3,366 8.0 -24.9°
Reaches altitude 10° 04:12:41 10° 352° (N) 2,433 6.9 -25.2°
Maximum altitude 04:18:03 47° 66° (ENE) 1,097 4.1 -25.8°
Enters shadow 04:18:20 46° 75° (ENE) 1,103 4.1 -25.9°
